FW4251 Weather Reports


time (UTC)temp
C
wind
direction
speed
KPH
gust
KPH
rain 1hr
cm
rain 24hr
cm
rain mn
cm
humidity
%
barometer
mb
20260504191048 20 169 11.3 22.5 0.00 0.00 0.00 36 1007.9
20260504190546 20 165 11.3 22.5 0.00 0.00 0.00 36 1008.0
20260504185544 21 168 8.0 24.1 0.00 0.00 0.00 37 1008.1
20260504185044 21 160 8.0 32.2 0.00 0.00 0.00 38 1008.0
20260504184552 22 219 11.3 24.1 0.00 0.00 0.00 34 1008.0
20260504184043 23 132 8.0 20.9 0.00 0.00 0.00 33 1008.0
20260504183541 22 211 11.3 29.0 0.00 0.00 0.00 36 1007.9
20260504183038 21 186 12.9 29.0 0.00 0.00 0.00 37 1008.0
20260504182537 21 258 11.3 25.7 0.00 0.00 0.00 37 1008.2
20260504182037 20 228 3.2 22.5 0.00 0.00 0.00 43 1008.0
20260504181543 20 151 11.3 22.5 0.00 0.00 0.00 35 1008.2
20260504181035 20 173 9.7 35.4 0.00 0.00 0.00 38 1008.2
20260504180535 21 167 17.7 35.4 0.00 0.00 0.00 36 1008.3
20260504180052 21 220 11.3 22.5 0.00 0.00 0.00 38 1008.6
20260504175532 21 240 9.7 38.6 0.00 0.00 0.00 37 1008.6
20260504175036 20 222 16.1 38.6 0.00 0.00 0.00 38 1008.6
20260504174532 21 205 11.3 29.0 0.00 0.00 0.00 36 1008.6
20260504174131 21 165 9.7 29.0 0.00 0.00 0.00 38 1008.8
20260504173530 21 210 11.3 29.0 0.00 0.00 0.00 36 1008.7
20260504173032 21 209 11.3 33.8 0.00 0.00 0.00 38 1008.8
20260504172527 21 296 12.9 33.8 0.00 0.00 0.00 37 1008.9
20260504172027 21 276 11.3 29.0 0.00 0.00 0.00 38 1009.0
20260504171528 20 223 12.9 29.0 0.00 0.00 0.00 37 1009.0
20260504171026 21 307 11.3 22.5 0.00 0.00 0.00 35 1009.0
20260504170524 20 272 12.9 29.0 0.00 0.00 0.00 37 1009.0
20260504151011 18 301 12.9 32.2 0.00 0.00 0.00 41 1010.3
20260504150511 18 193 11.3 32.2 0.00 0.00 0.00 40 1010.3
20260504141058 15 191 4.8 14.5 0.00 0.00 0.00 51 1011.0
20260504140558 15 175 6.4 19.3 0.00 0.00 0.00 49 1011.1
20260504140120 14 117 4.8 19.3 0.00 0.00 0.00 52 1011.2
20260504130546 12 184 4.8 14.5 0.00 0.00 0.00 59 1011.8
20260504130148 11 179 6.4 14.5 0.00 0.00 0.00 56 1011.8
20260504110525 6 207 4.8 14.5 0.00 0.00 0.00 70 1012.2
20260504100518 5 360 8.0 19.3 0.00 0.00 0.00 72 1012.1
20260504082008 4 360 6.4 14.5 0.00 0.00 0.00 77 1011.5
20260504081506 4 360 3.2 9.7 0.00 0.00 0.00 77 1011.6
20260504081005 4 360 3.2 9.7 0.00 0.00 0.00 77 1011.6
20260504080507 4 193 3.2 9.7 0.00 0.00 0.00 77 1011.6
20260504050539 6 360 3.2 8.0 0.00 0.00 0.00 71 1011.5
20260504050104 6 360 4.8 8.0 0.00 0.00 0.00 71 1011.6
20260504045537 6 360 1.6 6.4 0.00 0.00 0.00 70 1011.6
20260504045040 6 360 1.6 6.4 0.00 0.00 0.00 68 1011.5
20260504044536 6 360 1.6 8.0 0.00 0.00 0.00 68 1011.5
20260504044036 6 360 1.6 8.0 0.00 0.00 0.00 68 1011.6
20260504043535 6 360 3.2 6.4 0.00 0.00 0.00 68 1011.6
20260504043034 6 360 1.6 8.0 0.00 0.00 0.00 67 1011.7
20260504042533 6 360 3.2 8.0 0.00 0.00 0.00 67 1011.7
20260504042031 7 360 1.6 8.0 0.00 0.00 0.00 67 1011.7
20260504041534 7 360 3.2 8.0 0.00 0.00 0.00 65 1011.7
20260504041029 7 360 3.2 6.4 0.00 0.00 0.00 65 1011.7
20260504040528 7 360 1.6 8.0 0.00 0.00 0.00 64 1011.6
20260504040031 7 360 1.6 8.0 0.00 0.00 0.00 63 1011.5
20260504035529 7 360 3.2 8.0 0.00 0.00 0.00 63 1011.6
20260504035029 7 360 3.2 6.4 0.00 0.00 0.00 63 1011.4
20260504034539 7 360 3.2 9.7 0.00 0.00 0.00 63 1011.5
20260504034030 7 360 3.2 9.7 0.00 0.00 0.00 62 1011.4
20260504033534 7 360 3.2 8.0 0.00 0.00 0.00 63 1011.4
20260504033030 7 360 3.2 6.4 0.00 0.00 0.00 63 1011.4
20260504032525 7 360 3.2 8.0 0.00 0.00 0.00 64 1011.4
20260504032025 6 360 3.2 8.0 0.00 0.00 0.00 65 1011.5
20260504031526 6 360 1.6 3.2 0.00 0.00 0.00 65 1011.4
20260504031026 6 360 0.0 3.2 0.00 0.00 0.00 63 1011.4
20260504030526 6 360 0.0 3.2 0.00 0.00 0.00 63 1011.5
20260504030036 7 360 0.0 4.8 0.00 0.00 0.00 61 1011.3
20260504025530 7 360 1.6 4.8 0.00 0.00 0.00 62 1011.4
20260504025025 6 360 1.6 4.8 0.00 0.00 0.00 65 1011.4
20260504024525 6 360 0.0 3.2 0.00 0.00 0.00 65 1011.4
20260504024026 7 360 0.0 3.2 0.00 0.00 0.00 63 1011.3
20260504023524 7 360 0.0 4.8 0.00 0.00 0.00 61 1011.3
20260504023024 7 360 1.6 4.8 0.00 0.00 0.00 61 1011.3
20260504022523 7 360 0.0 0.0 0.00 0.00 0.00 59 1011.3
20260504022023 7 360 0.0 0.0 0.00 0.00 0.00 59 1011.3
20260504021523 7 360 0.0 0.0 0.00 0.00 0.00 58 1011.3
20260504021023 7 360 0.0 0.0 0.00 0.00 0.00 58 1011.3
20260504020523 8 360 0.0 0.0 0.00 0.00 0.00 57 1011.3
20260504020023 8 360 0.0 0.0 0.00 0.00 0.00 56 1011.3
20260504015523 8 312 0.0 0.0 0.00 0.00 0.00 57 1011.3
20260504015023 8 312 0.0 1.6 0.00 0.00 0.00 56 1011.3
20260504014524 8 312 0.0 3.2 0.00 0.00 0.00 54 1011.3
20260504014022 8 312 0.0 3.2 0.00 0.00 0.00 54 1011.3
20260504013522 8 312 0.0 3.2 0.00 0.00 0.00 53 1011.3
20260504013023 8 312 0.0 1.6 0.00 0.00 0.00 53 1011.2
20260504012523 8 312 0.0 1.6 0.00 0.00 0.00 52 1011.2
20260504012022 8 312 0.0 1.6 0.00 0.00 0.00 53 1011.2
20260504011523 9 312 0.0 3.2 0.00 0.00 0.00 53 1011.2
20260504011021 9 312 0.0 4.8 0.00 0.00 0.00 52 1011.1
20260504010523 9 360 1.6 4.8 0.00 0.00 0.00 52 1011.1
20260504010021 9 310 1.6 3.2 0.00 0.00 0.00 53 1011.0
20260504005521 9 312 1.6 3.2 0.00 0.00 0.00 52 1010.9
20260504005021 10 311 0.0 3.2 0.00 0.00 0.00 51 1011.0
20260504004523 10 312 0.0 4.8 0.00 0.00 0.00 49 1010.9
20260504004021 10 311 1.6 4.8 0.00 0.00 0.00 49 1010.9
20260504003520 10 311 0.0 4.8 0.00 0.00 0.00 48 1010.8
20260504003022 11 311 0.0 4.8 0.00 0.00 0.00 46 1010.7
20260504002519 11 311 1.6 8.0 0.00 0.00 0.00 45 1010.7
20260504002019 11 311 3.2 8.0 0.00 0.00 0.00 45 1010.6
20260504001519 11 317 1.6 3.2 0.00 0.00 0.00 44 1010.5
20260504001019 12 317 1.6 4.8 0.00 0.00 0.00 43 1010.4
20260504000518 12 360 0.0 4.8 0.00 0.00 0.00 43 1010.3
20260504000018 12 317 1.6 9.7 0.00 0.00 0.00 42 1010.4
20260503235518 12 317 3.2 9.7 0.00 0.00 0.00 41 1010.3
20260503235018 12 319 3.2 9.7 0.00 0.00 0.00 41 1010.2
20260503234522 12 331 3.2 9.7 0.00 0.00 0.00 41 1010.3
20260503234018 12 304 3.2 12.9 0.00 0.00 0.00 40 1010.1
20260503233517 12 313 3.2 12.9 0.00 0.00 0.00 40 1010.1
20260503233017 12 314 4.8 8.0 0.00 0.00 0.00 39 1010.0
20260503232517 13 327 3.2 27.4 0.00 0.00 0.00 40 1010.0
20260503232017 13 329 6.4 27.4 0.00 0.00 0.00 38 1010.0
20260503231519 13 312 9.7 20.9 0.00 0.00 0.00 37 1010.0
20260503231017 13 309 1.6 9.7 0.00 0.00 0.00 38 1010.1
20260503230517 13 305 3.2 20.9 0.00 0.00 0.00 37 1010.0
20260503230016 13 309 4.8 17.7 0.00 0.00 0.00 36 1010.0
20260503225516 13 328 4.8 12.9 0.00 0.00 0.00 35 1009.9
20260503225016 13 287 4.8 12.9 0.00 0.00 0.00 34 1009.8
20260503224516 13 279 3.2 22.5 0.00 0.00 0.00 33 1009.7
20260503224017 13 323 6.4 22.5 0.00 0.00 0.00 34 1009.5
20260503223517 13 345 6.4 24.1 0.00 0.00 0.00 32 1009.5
20260503223022 13 272 12.9 24.1 0.00 0.00 0.00 32 1009.6
20260503222515 13 246 8.0 27.4 0.00 0.00 0.00 32 1009.6
20260503222016 13 315 11.3 27.4 0.00 0.00 0.00 31 1009.5
20260503221515 14 294 8.0 19.3 0.00 0.00 0.00 31 1009.4
20260503221015 14 315 8.0 17.7 0.00 0.00 0.00 30 1009.3
20260503220515 14 5 8.0 29.0 0.00 0.00 0.00 30 1009.3
20260503220017 14 323 12.9 29.0 0.00 0.00 0.00 28 1009.2
20260503215515 15 235 6.4 17.7 0.00 0.00 0.00 30 1009.4
20260503215013 14 307 6.4 16.1 0.00 0.00 0.00 31 1009.3
20260503214514 15 302 6.4 22.5 0.00 0.00 0.00 29 1009.3
20260503214014 15 294 9.7 22.5 0.00 0.00 0.00 28 1009.3
20260503213513 15 9 6.4 17.7 0.00 0.00 0.00 28 1009.2
20260503213012 15 360 9.7 20.9 0.00 0.00 0.00 28 1009.2
20260503212512 15 5 4.8 16.1 0.00 0.00 0.00 31 1009.2
20260503212011 15 340 8.0 20.9 0.00 0.00 0.00 29 1009.3
20260503211517 15 313 11.3 22.5 0.00 0.00 0.00 29 1009.4
20260503211010 15 9 6.4 19.3 0.00 0.00 0.00 30 1009.3
20260503210508 15 333 9.7 17.7 0.00 0.00 0.00 31 1009.3
20260503210016 15 320 8.0 22.5 0.00 0.00 0.00 31 1009.3
20260503205512 14 9 6.4 32.2 0.00 0.00 0.00 33 1009.3
20260503205007 14 336 11.3 24.1 0.00 0.00 0.00 30 1009.3
20260503204506 14 331 12.9 25.7 0.00 0.00 0.00 31 1009.3
20260503204006 14 319 12.9 25.7 0.00 0.00 0.00 30 1009.3
20260503203504 14 308 11.3 22.5 0.00 0.00 0.00 31 1009.4
20260503203011 14 5 8.0 19.3 0.00 0.00 0.00 32 1009.5
20260503202503 14 17 9.7 25.7 0.00 0.00 0.00 33 1009.5
20260503202004 13 344 9.7 24.1 0.00 0.00 0.00 32 1009.5
20260503201503 13 347 14.5 24.1 0.00 0.00 0.00 31 1009.4
20260503201002 14 318 6.4 25.7 0.00 0.00 0.00 35 1009.5
20260503200501 14 331 11.3 25.7 0.00 0.00 0.00 33 1009.5
20260503200000 14 335 6.4 25.7 0.00 0.00 0.00 34 1009.6
20260503195500 14 355 6.4 32.2 0.00 0.00 0.00 33 1009.7
20260503195100 13 342 11.3 32.2 0.00 0.00 0.00 32 1009.7
20260503194600 15 313 9.7 20.9 0.00 0.00 0.00 32 1009.9
20260503194100 14 213 4.8 17.7 0.00 0.00 0.00 35 1009.8
20260503193557 13 254 8.0 22.5 0.00 0.00 0.00 36 1010.0
20260503193057 13 288 12.9 30.6 0.00 0.00 0.00 32 1010.2
20260503192556 13 327 12.9 30.6 0.00 0.00 0.00 33 1010.1
20260503192055 13 304 12.9 25.7 0.00 0.00 0.00 34 1010.2
20260503191604 13 304 14.5 25.7 0.00 0.00 0.00 35 1010.3